Location: Chervonnoye
(48.6000°N, 34.4000°E)
Time: 20:15:13
(UTC+00:00)

RS-44 - Pass Details

Date: 02 December 2021
Orbit: 1175 x 1510 km, 82.5° (Epoch: 19 January)

Event Time Altitude Azimuth Distance (km) Brightness Sun altitude
Rises 02:44:19 0° 354° (N) 4,124 ? -24.0°
Reaches altitude 10° 02:47:28 10° 7° (N) 3,189 ? -23.5°
Maximum altitude 02:53:43 28° 64° (ENE) 2,204 ? -22.5°
Drops below altitude 10° 03:00:15 10° 120° (ESE) 3,360 ? -21.4°
Sets 03:03:38 0° 132° (SE) 4,383 ? -20.8°
